Location: De Greiden
(52.9496°N, 5.9137°E)
Time: 00:20:26
(UTC+00:00)

SJ-11-01 - Pass Details

Date: 24 January 2021
Orbit: 684 x 701 km, 98.0° (Epoch: 26 February)

Event Time Altitude Azimuth Distance (km) Brightness Sun altitude
Rises 18:12:29 0° 164° (SSE) 3,055 7.5 -18.6°
Reaches altitude 10° 18:14:43 10° 164° (SSE) 2,140 6.7 -19.0°
Maximum altitude 18:19:25 89° 255° (WSW) 696 4.2 -19.7°
Drops below altitude 10° 18:24:08 10° 345° (NNW) 2,147 6.9 -20.4°
Sets 18:26:23 0° 346° (NNW) 3,067 7.7 -20.7°
